Weather History for Blue Canyon, CA

Change the Weather History Date:

Tuesday, October 25, 2011

  Actual Average Record
Temperature  
Mean Temperature 50 °F -  
Max Temperature 57 °F 60 °F 77 °F (1959)
Min Temperature 42 °F 44 °F 28 °F (1996)
Degree Days  
Heating Degree Days 16    
Moisture  
Dew Point 35 °F    
Average Humidity 59    
Maximum Humidity 86    
Minimum Humidity 34    
Precipitation  
Precipitation 0.14 in - - ()
Sea Level Pressure  
Sea Level Pressure 30.00 in    
Wind  
Wind Speed 4 mph (ESE)    
Max Wind Speed 14 mph    
Max Gust Speed 30 mph    
Visibility 10 miles    
Events Rain    
Averages and records for this station are not official NWS values.
T = Trace of Precipitation, MM = Missing Value Source: NWS Daily Summary

Daily Weather History Graph

Daily Weather History Graph

Search for Another Location

Airport:

Trip Planner

Search our weather history database for the weather conditions in past years. The results will help you decide how hot, cold, wet, or windy it might be!

Date:

Astronomy

Oct. 25, 2011 Rise Set
Actual Time 7:22 AM PDT 6:10 PM PDT
Civil Twilight 6:55 AM PDT 6:37 PM PDT
Nautical Twilight 6:24 AM PDT 7:09 PM PDT
Astronomical Twilight 5:52 AM PDT 7:40 PM PDT
Moon 6:01 AM PDT (10/25) 5:15 PM PDT (10/25)
Length of Visible Light 11h 42m
Length of Day
10h 47m
Waning Crescent, 2% of the Moon is Illuminated
Oct 25
Waning Crescent
Oct 26
New
Nov 2
First Quarter
Nov 10
Full
Nov 18
Last Quarter

Hourly Weather History & Observations

Time (PDT) Temp. Windchill Dew Point Humidity Pressure Visibility Wind Dir Wind Speed Gust Speed Precip Events Conditions
12:52 AM 52.0 °F - 39.9 °F 63% 29.96 in 10.0 mi Calm Calm - N/A   Clear
1:52 AM 50.0 °F - 42.1 °F 74% 29.96 in 10.0 mi Calm Calm - N/A   Clear
2:52 AM 50.0 °F - 41.0 °F 71% 29.96 in 10.0 mi SE 3.5 mph - N/A   Clear
3:52 AM 48.0 °F - 37.9 °F 68% 29.96 in 10.0 mi ESE 3.5 mph - N/A   Clear
4:52 AM 48.0 °F - 37.0 °F 66% 29.95 in 10.0 mi ESE 3.5 mph - N/A   Clear
5:52 AM 48.0 °F - 37.0 °F 66% 29.97 in 10.0 mi ESE 3.5 mph - N/A   Clear
6:52 AM 48.0 °F - 36.0 °F 63% 29.98 in 10.0 mi ESE 3.5 mph - N/A   Clear
7:52 AM 48.0 °F - 36.0 °F 63% 29.98 in 10.0 mi ESE 3.5 mph - N/A   Clear
8:52 AM 50.0 °F - 39.0 °F 66% 29.99 in 10.0 mi Calm Calm - N/A   Clear
9:52 AM 52.0 °F - 42.1 °F 69% 29.99 in 10.0 mi South 8.1 mph - N/A   Clear
10:52 AM 53.1 °F - 41.0 °F 64% 29.99 in 10.0 mi SSE 8.1 mph - N/A   Clear
11:52 AM 54.0 °F - 32.0 °F 43% 30.00 in 10.0 mi South 6.9 mph - N/A   Clear
12:52 PM 55.9 °F - 34.0 °F 44% 29.98 in 10.0 mi Variable 4.6 mph - N/A   Clear
1:52 PM 55.9 °F - 35.1 °F 45% 29.97 in 10.0 mi South 5.8 mph - N/A   Clear
2:52 PM 57.0 °F - 34.0 °F 42% 29.94 in 10.0 mi West 5.8 mph - N/A   Clear
3:52 PM 55.0 °F - 43.0 °F 64% 29.96 in 10.0 mi West 8.1 mph - N/A   Mostly Cloudy
4:52 PM 48.0 °F - 39.0 °F 71% 30.01 in 5.0 mi Variable 5.8 mph - 0.04 in Rain Rain
4:59 PM 46.4 °F 45.2 °F 37.4 °F 71% 30.11 in 4.0 mi SE 3.5 mph - 0.07 in Rain Rain
5:52 PM 43.0 °F 41.3 °F 39.0 °F 86% 30.03 in 10.0 mi ENE 3.5 mph - 0.10 in   Scattered Clouds
6:52 PM 45.0 °F 41.8 °F 33.1 °F 63% 30.04 in 10.0 mi ENE 5.8 mph - N/A   Clear
7:52 PM 42.1 °F 37.7 °F 30.9 °F 65% 30.06 in 10.0 mi NE 6.9 mph - N/A   Clear
8:52 PM 44.1 °F 39.0 °F 25.0 °F 47% 30.04 in 10.0 mi NE 9.2 mph 19.6 mph N/A   Clear
9:52 PM 43.0 °F 36.8 °F 19.9 °F 40% 30.04 in 10.0 mi NE 11.5 mph 19.6 mph N/A   Clear
10:52 PM 43.0 °F 36.4 °F 17.1 °F 35% 30.04 in 10.0 mi ENE 12.7 mph 27.6 mph N/A   Clear
11:52 PM 42.1 °F 34.9 °F 15.1 °F 34% 30.03 in 10.0 mi ENE 13.8 mph 29.9 mph N/A   Clear